This is the latest recevied weather packets stored in our database for station/object KM4CBK. If no packets are shown the sender has not sent any weather packets the latest 10 day(s).
| Time | Temp. | Humidity | Pressure | Rain* | Wind** | Luminosity | Snow |
|---|---|---|---|---|---|---|---|
| 1777519815 | 19.44° C | 91% | 1011.3 hPa | 0 mm | - | 0 W/m² | - |
| 1777519512 | 20° C | 91% | 1011.4 hPa | 0 mm | - | 0 W/m² | - |
| 1777519208 | 20° C | 90% | 1011.6 hPa | 0 mm | - | 0 W/m² | - |
| 1777518903 | 20° C | 89% | 1011.7 hPa | 0 mm | - | 0 W/m² | - |
| 1777518601 | 20.56° C | 88% | 1011.5 hPa | 0 mm | - | 0 W/m² | - |
| 1777518296 | 20.56° C | 87% | 1011.5 hPa | 0 mm | - | 0 W/m² | - |
| 1777517992 | 20.56° C | 87% | 1011.6 hPa | 0 mm | - | 0 W/m² | - |
| 1777517689 | 20.56° C | 88% | 1011.8 hPa | 0 mm | - | 0 W/m² | - |
| 1777517385 | 20.56° C | 88% | 1011.8 hPa | 0 mm | - | 0 W/m² | - |
| 1777517079 | 20.56° C | 88% | 1011.9 hPa | 0 mm | - | 0 W/m² | - |
| 1777516776 | 20.56° C | 89% | 1011.5 hPa | 0 mm | - | 0 W/m² | - |
| 1777516472 | 20.56° C | 90% | 1011 hPa | 0 mm | - | 0 W/m² | - |
| 1777516167 | 20.56° C | 87% | 1011 hPa | 0 mm | - | 0 W/m² | - |
| 1777515866 | 21.11° C | 87% | 1010.9 hPa | 0 mm | - | 0 W/m² | - |
| 1777515561 | 21.11° C | 86% | 1010.6 hPa | 0 mm | - | 0 W/m² | - |
| 1777515259 | 21.11° C | 84% | 1010.6 hPa | 0 mm | - | 0 W/m² | - |
| 1777514955 | 21.67° C | 84% | 1010.7 hPa | 0 mm | - | 0 W/m² | - |
| 1777514651 | 21.67° C | 83% | 1010.8 hPa | 0 mm | - | 0 W/m² | - |
| 1777514349 | 21.67° C | 83% | 1010.6 hPa | 0 mm | - | 0 W/m² | - |
| 1777514045 | 21.67° C | 83% | 1010.5 hPa | 0 mm | - | 0 W/m² | - |
| 1777513743 | 22.22° C | 81% | 1010.7 hPa | 0 mm | - | 0 W/m² | - |
| 1777513439 | 22.22° C | 82% | 1010.5 hPa | 0 mm | - | 0 W/m² | - |
| 1777513136 | 22.78° C | 86% | 1010.5 hPa | 0 mm | - | 0 W/m² | - |
| 1777512831 | 22.78° C | 80% | 1010.5 hPa | 0 mm | - | 0 W/m² | - |
| 1777511923 | 23.33° C | 93% | 1010 hPa | 0 mm | - | 0 W/m² | - |
* Rain latest hour (hover to see other rain measurements)
** Current wind speed in m/s (hover to see current wind gust speed)